| time (UTC) | temp C | wind direction | speed KPH | gust KPH | rain 1hr cm | rain 24hr cm | rain mn cm | humidity % | barometer mb |
| 20260906125708 | 35 | 283 | 8.0 | 16.1 | 0.00 | 0.00 | 0.00 | 30 | 1016.5 |
| 20260906125206 | 35 | 264 | 6.4 | 17.7 | 0.00 | 0.00 | 0.00 | 31 | 1016.5 |
| 20260906124706 | 35 | 311 | 8.0 | 17.7 | 0.00 | 0.00 | 0.00 | 29 | 1016.6 |
| 20260906124438 | 35 | 302 | 8.0 | 16.1 | 0.00 | 0.00 | 0.00 | 30 | 1016.6 |
| 20260906123705 | 35 | 288 | 8.0 | 14.5 | 0.00 | 0.00 | 0.00 | 34 | 1016.6 |
| 20260906123204 | 35 | 276 | 8.0 | 16.1 | 0.00 | 0.00 | 0.00 | 35 | 1016.6 |
| 20260906122705 | 34 | 307 | 8.0 | 16.1 | 0.00 | 0.00 | 0.00 | 36 | 1016.6 |
| 20260906122202 | 35 | 280 | 8.0 | 17.7 | 0.00 | 0.00 | 0.00 | 34 | 1016.6 |
| 20260906121925 | 34 | 328 | 8.0 | 17.7 | 0.00 | 0.00 | 0.00 | 35 | 1016.7 |
| 20260906121425 | 34 | 288 | 8.0 | 17.7 | 0.00 | 0.00 | 0.00 | 35 | 1016.9 |
| 20260906120927 | 35 | 284 | 9.7 | 27.4 | 0.00 | 0.00 | 0.00 | 32 | 1016.9 |
| 20260906120157 | 34 | 276 | 9.7 | 27.4 | 0.00 | 0.00 | 0.00 | 31 | 1017.0 |
| 20260906115704 | 34 | 288 | 9.7 | 16.1 | 0.00 | 0.00 | 0.00 | 37 | 1017.0 |
| 20260906115145 | 34 | 321 | 8.0 | 17.7 | 0.00 | 0.00 | 0.00 | 34 | 1017.0 |
| 20260906114639 | 34 | 282 | 8.0 | 17.7 | 0.00 | 0.00 | 0.00 | 37 | 1017.1 |
| 20260906114133 | 34 | 262 | 8.0 | 17.7 | 0.00 | 0.00 | 0.00 | 36 | 1017.1 |
| 20260906113627 | 34 | 312 | 9.7 | 17.7 | 0.00 | 0.00 | 0.00 | 35 | 1017.1 |
| 20260906113122 | 34 | 322 | 9.7 | 19.3 | 0.00 | 0.00 | 0.00 | 35 | 1017.2 |
| 20260906112615 | 33 | 320 | 9.7 | 19.3 | 0.00 | 0.00 | 0.00 | 35 | 1017.2 |
| 20260906112109 | 33 | 316 | 9.7 | 17.7 | 0.00 | 0.00 | 0.00 | 36 | 1017.2 |
| 20260906111603 | 33 | 285 | 9.7 | 17.7 | 0.00 | 0.00 | 0.00 | 36 | 1017.2 |
| 20260906111101 | 34 | 285 | 9.7 | 17.7 | 0.00 | 0.00 | 0.00 | 34 | 1017.2 |
| 20260906110558 | 33 | 301 | 8.0 | 19.3 | 0.00 | 0.00 | 0.00 | 35 | 1017.3 |
| 20260906110058 | 33 | 309 | 8.0 | 19.3 | 0.00 | 0.00 | 0.00 | 36 | 1017.2 |
| 20260906105558 | 34 | 312 | 8.0 | 16.1 | 0.00 | 0.00 | 0.00 | 33 | 1017.3 |
| 20260906105545 | 33 | 294 | 9.7 | 16.1 | 0.00 | 0.00 | 0.00 | 34 | 1017.4 |
| 20260906104558 | 33 | 289 | 9.7 | 16.1 | 0.00 | 0.00 | 0.00 | 34 | 1017.3 |
| 20260906104058 | 33 | 307 | 8.0 | 16.1 | 0.00 | 0.00 | 0.00 | 34 | 1017.4 |
| 20260906103559 | 33 | 285 | 8.0 | 16.1 | 0.00 | 0.00 | 0.00 | 33 | 1017.4 |
| 20260906103058 | 33 | 298 | 8.0 | 16.1 | 0.00 | 0.00 | 0.00 | 35 | 1017.4 |
| 20260906102558 | 33 | 304 | 9.7 | 16.1 | 0.00 | 0.00 | 0.00 | 34 | 1017.5 |
| 20260906102100 | 33 | 304 | 8.0 | 16.1 | 0.00 | 0.00 | 0.00 | 36 | 1017.5 |
| 20260906101558 | 33 | 342 | 9.7 | 17.7 | 0.00 | 0.00 | 0.00 | 37 | 1017.5 |
| 20260906101058 | 33 | 290 | 9.7 | 17.7 | 0.00 | 0.00 | 0.00 | 35 | 1017.5 |
| 20260906100817 | 33 | 295 | 8.0 | 16.1 | 0.00 | 0.00 | 0.00 | 36 | 1017.6 |
| 20260906100058 | 33 | 276 | 8.0 | 16.1 | 0.00 | 0.00 | 0.00 | 36 | 1017.6 |
| 20260906095558 | 32 | 283 | 8.0 | 16.1 | 0.00 | 0.00 | 0.00 | 37 | 1017.6 |
| 20260906095058 | 32 | 285 | 9.7 | 16.1 | 0.00 | 0.00 | 0.00 | 36 | 1017.6 |
| 20260906094552 | 32 | 292 | 8.0 | 16.1 | 0.00 | 0.00 | 0.00 | 37 | 1017.7 |
| 20260906094310 | 32 | 303 | 9.7 | 16.1 | 0.00 | 0.00 | 0.00 | 36 | 1017.7 |
| 20260906093806 | 32 | 264 | 9.7 | 14.5 | 0.00 | 0.00 | 0.00 | 37 | 1017.7 |
| 20260906093034 | 32 | 284 | 9.7 | 14.5 | 0.00 | 0.00 | 0.00 | 37 | 1017.8 |
| 20260906092528 | 32 | 296 | 9.7 | 17.7 | 0.00 | 0.00 | 0.00 | 40 | 1017.8 |
| 20260906092245 | 32 | 276 | 9.7 | 17.7 | 0.00 | 0.00 | 0.00 | 37 | 1017.8 |
| 20260906091741 | 32 | 251 | 9.7 | 14.5 | 0.00 | 0.00 | 0.00 | 37 | 1017.8 |
| 20260906091010 | 32 | 300 | 9.7 | 19.3 | 0.00 | 0.00 | 0.00 | 36 | 1017.9 |
| 20260906090727 | 31 | 311 | 11.3 | 19.3 | 0.00 | 0.00 | 0.00 | 36 | 1017.9 |
| 20260906090222 | 31 | 356 | 11.3 | 17.7 | 0.00 | 0.00 | 0.00 | 36 | 1017.9 |
| 20260906085451 | 31 | 302 | 9.7 | 16.1 | 0.00 | 0.00 | 0.00 | 36 | 1017.9 |
| 20260906085209 | 31 | 296 | 11.3 | 17.7 | 0.00 | 0.00 | 0.00 | 38 | 1017.9 |
| 20260906084439 | 31 | 309 | 11.3 | 19.3 | 0.00 | 0.00 | 0.00 | 39 | 1017.9 |
| 20260906083933 | 31 | 304 | 11.3 | 19.3 | 0.00 | 0.00 | 0.00 | 38 | 1017.9 |
| 20260906083429 | 31 | 310 | 11.3 | 17.7 | 0.00 | 0.00 | 0.00 | 38 | 1017.9 |
| 20260906082928 | 31 | 295 | 11.3 | 19.3 | 0.00 | 0.00 | 0.00 | 39 | 1018.0 |
| 20260906082428 | 30 | 304 | 9.7 | 19.3 | 0.00 | 0.00 | 0.00 | 39 | 1018.0 |
| 20260906081929 | 30 | 333 | 9.7 | 16.1 | 0.00 | 0.00 | 0.00 | 38 | 1018.0 |
| 20260906081428 | 30 | 318 | 9.7 | 17.7 | 0.00 | 0.00 | 0.00 | 39 | 1018.0 |
| 20260906080928 | 30 | 335 | 9.7 | 20.9 | 0.00 | 0.00 | 0.00 | 39 | 1018.0 |
| 20260906080428 | 30 | 298 | 11.3 | 20.9 | 0.00 | 0.00 | 0.00 | 39 | 1018.0 |
| 20260906075928 | 30 | 313 | 11.3 | 20.9 | 0.00 | 0.00 | 0.00 | 39 | 1017.9 |
| 20260906075905 | 30 | 297 | 11.3 | 20.9 | 0.00 | 0.00 | 0.00 | 40 | 1018.0 |
| 20260906074928 | 30 | 304 | 11.3 | 20.9 | 0.00 | 0.00 | 0.00 | 40 | 1018.0 |
| 20260906074428 | 30 | 319 | 11.3 | 22.5 | 0.00 | 0.00 | 0.00 | 40 | 1018.0 |
| 20260906074151 | 29 | 314 | 9.7 | 22.5 | 0.00 | 0.00 | 0.00 | 40 | 1017.9 |
| 20260906073644 | 29 | 340 | 8.0 | 19.3 | 0.00 | 0.00 | 0.00 | 40 | 1017.9 |
| 20260906072927 | 29 | 297 | 9.7 | 20.9 | 0.00 | 0.00 | 0.00 | 40 | 1017.8 |
| 20260906072427 | 29 | 321 | 9.7 | 20.9 | 0.00 | 0.00 | 0.00 | 41 | 1017.8 |
| 20260906071928 | 28 | 304 | 8.0 | 17.7 | 0.00 | 0.00 | 0.00 | 41 | 1017.8 |
| 20260906071429 | 28 | 293 | 8.0 | 17.7 | 0.00 | 0.00 | 0.00 | 42 | 1017.8 |
| 20260906070922 | 28 | 310 | 6.4 | 14.5 | 0.00 | 0.00 | 0.00 | 45 | 1017.8 |
| 20260906070415 | 28 | 304 | 6.4 | 12.9 | 0.00 | 0.00 | 0.00 | 49 | 1017.7 |
| 20260906065916 | 27 | 309 | 6.4 | 11.3 | 0.00 | 0.00 | 0.00 | 50 | 1017.6 |
| 20260906065416 | 26 | 305 | 6.4 | 11.3 | 0.00 | 0.00 | 0.00 | 54 | 1017.6 |
| 20260906064916 | 26 | 298 | 4.8 | 9.7 | 0.00 | 0.00 | 0.00 | 58 | 1017.6 |
| 20260906064416 | 25 | 320 | 3.2 | 8.0 | 0.00 | 0.00 | 0.00 | 61 | 1017.6 |
| 20260906063915 | 25 | 309 | 4.8 | 8.0 | 0.00 | 0.00 | 0.00 | 64 | 1017.6 |
| 20260906063416 | 24 | 275 | 6.4 | 12.9 | 0.00 | 0.00 | 0.00 | 67 | 1017.6 |
| 20260906062916 | 24 | 279 | 8.0 | 12.9 | 0.00 | 0.00 | 0.00 | 67 | 1017.5 |
| 20260906062413 | 24 | 276 | 6.4 | 12.9 | 0.00 | 0.00 | 0.00 | 66 | 1017.5 |
| 20260906061914 | 23 | 266 | 6.4 | 11.3 | 0.00 | 0.00 | 0.00 | 67 | 1017.4 |
| 20260906061414 | 23 | 300 | 6.4 | 12.9 | 0.00 | 0.00 | 0.00 | 67 | 1017.4 |
| 20260906061138 | 23 | 295 | 4.8 | 12.9 | 0.00 | 0.00 | 0.00 | 68 | 1017.3 |
| 20260906060414 | 23 | 300 | 4.8 | 9.7 | 0.00 | 0.00 | 0.00 | 66 | 1017.4 |
| 20260906060131 | 23 | 266 | 4.8 | 9.7 | 0.00 | 0.00 | 0.00 | 65 | 1017.3 |
| 20260906055641 | 24 | 297 | 4.8 | 9.7 | 0.00 | 0.00 | 0.00 | 63 | 1017.3 |
| 20260906054911 | 23 | 293 | 3.2 | 8.0 | 0.00 | 0.00 | 0.00 | 63 | 1017.4 |
| 20260906054638 | 23 | 277 | 3.2 | 4.8 | 0.00 | 0.00 | 0.00 | 62 | 1017.4 |
| 20260906053912 | 23 | 307 | 3.2 | 4.8 | 0.00 | 0.00 | 0.00 | 63 | 1017.3 |
| 20260906053640 | 23 | 294 | 3.2 | 4.8 | 0.00 | 0.00 | 0.00 | 63 | 1017.4 |
| 20260906052909 | 23 | 356 | 3.2 | 4.8 | 0.00 | 0.00 | 0.00 | 65 | 1017.3 |
| 20260906052632 | 23 | 304 | 1.6 | 4.8 | 0.00 | 0.00 | 0.00 | 67 | 1017.3 |
| 20260906051910 | 23 | 342 | 1.6 | 4.8 | 0.00 | 0.00 | 0.00 | 69 | 1017.3 |
| 20260906051636 | 22 | 302 | 3.2 | 6.4 | 0.00 | 0.00 | 0.00 | 71 | 1017.3 |
| 20260906050909 | 22 | 261 | 1.6 | 6.4 | 0.00 | 0.00 | 0.00 | 72 | 1017.2 |
| 20260906050410 | 22 | 274 | 3.2 | 6.4 | 0.00 | 0.00 | 0.00 | 74 | 1017.2 |
| 20260906045906 | 22 | 281 | 3.2 | 6.4 | 0.00 | 0.00 | 0.00 | 75 | 1017.1 |
| 20260906045406 | 22 | 277 | 4.8 | 11.3 | 0.00 | 0.00 | 0.00 | 76 | 1017.1 |
| 20260906044906 | 22 | 255 | 6.4 | 12.9 | 0.00 | 0.00 | 0.00 | 76 | 1017.1 |
| 20260906044406 | 22 | 276 | 6.4 | 12.9 | 0.00 | 0.00 | 0.00 | 73 | 1016.9 |
| 20260906043905 | 23 | 240 | 3.2 | 11.3 | 0.00 | 0.00 | 0.00 | 70 | 1016.9 |
| 20260906043405 | 23 | 277 | 1.6 | 11.3 | 0.00 | 0.00 | 0.00 | 70 | 1016.9 |
| 20260906042906 | 23 | 124 | 1.6 | 1.6 | 0.00 | 0.00 | 0.00 | 68 | 1016.5 |
| 20260906042405 | 23 | 124 | 0.0 | 1.6 | 0.00 | 0.00 | 0.00 | 70 | 1016.4 |
| 20260906041905 | 22 | 257 | 0.0 | 1.6 | 0.00 | 0.00 | 0.00 | 70 | 1016.4 |
| 20260906041400 | 22 | 257 | 0.0 | 1.6 | 0.00 | 0.00 | 0.00 | 70 | 1016.3 |
| 20260906040853 | 22 | 257 | 0.0 | 3.2 | 0.00 | 0.00 | 0.00 | 70 | 1016.4 |
| 20260906040347 | 22 | 257 | 0.0 | 3.2 | 0.00 | 0.00 | 0.00 | 70 | 1016.3 |
| 20260906035840 | 22 | 257 | 1.6 | 3.2 | 0.00 | 0.00 | 0.00 | 70 | 1016.2 |
| 20260906035335 | 23 | 257 | 1.6 | 3.2 | 0.00 | 0.00 | 0.00 | 70 | 1016.2 |
| 20260906034829 | 23 | 271 | 1.6 | 4.8 | 0.00 | 0.00 | 0.00 | 69 | 1016.2 |
| 20260906034323 | 23 | 271 | 3.2 | 4.8 | 0.00 | 0.00 | 0.00 | 69 | 1016.2 |
| 20260906034044 | 23 | 276 | 3.2 | 6.4 | 0.00 | 0.00 | 0.00 | 69 | 1016.1 |
| 20260906033311 | 23 | 269 | 1.6 | 6.4 | 0.00 | 0.00 | 0.00 | 69 | 1016.1 |
| 20260906032805 | 23 | 266 | 0.0 | 4.8 | 0.00 | 0.00 | 0.00 | 69 | 1016.1 |
| 20260906032502 | 23 | 212 | 0.0 | 3.2 | 0.00 | 0.00 | 0.00 | 66 | 1016.0 |
| 20260906032349 | 23 | 212 | 0.0 | 1.6 | 0.00 | 0.00 | 0.00 | 67 | 1016.1 |
| 20260906031247 | 23 | 212 | 0.0 | 3.2 | 0.00 | 0.00 | 0.00 | 66 | 1016.0 |
| 20260906030741 | 23 | 228 | 1.6 | 3.2 | 0.00 | 0.00 | 0.00 | 68 | 1016.0 |
| 20260906030235 | 23 | 228 | 1.6 | 4.8 | 0.00 | 0.00 | 0.00 | 67 | 1015.9 |
| 20260906025729 | 23 | 265 | 0.0 | 4.8 | 0.00 | 0.00 | 0.00 | 64 | 1015.9 |
| 20260906025223 | 23 | 347 | 0.0 | 1.6 | 0.00 | 0.00 | 0.00 | 57 | 1015.8 |
| 20260906024716 | 23 | 349 | 0.0 | 0.0 | 0.00 | 0.00 | 0.00 | 56 | 1015.8 |
| 20260906024211 | 23 | 349 | 0.0 | 0.0 | 0.00 | 0.00 | 0.00 | 56 | 1015.8 |
| 20260906023705 | 23 | 349 | 0.0 | 0.0 | 0.00 | 0.00 | 0.00 | 54 | 1015.8 |
| 20260906023159 | 23 | 349 | 0.0 | 0.0 | 0.00 | 0.00 | 0.00 | 53 | 1015.7 |
| 20260906022653 | 23 | 349 | 0.0 | 0.0 | 0.00 | 0.00 | 0.00 | 53 | 1015.7 |
| 20260906022146 | 23 | 349 | 0.0 | 1.6 | 0.00 | 0.00 | 0.00 | 52 | 1015.7 |
| 20260906021641 | 23 | 349 | 0.0 | 1.6 | 0.00 | 0.00 | 0.00 | 52 | 1015.6 |
| 20260906021135 | 24 | 349 | 0.0 | 1.6 | 0.00 | 0.00 | 0.00 | 52 | 1015.7 |
| 20260906020629 | 24 | 349 | 0.0 | 1.6 | 0.00 | 0.00 | 0.00 | 51 | 1015.6 |
| 20260906020122 | 24 | 349 | 1.6 | 1.6 | 0.00 | 0.00 | 0.00 | 50 | 1015.7 |
| 20260906015616 | 24 | 347 | 1.6 | 1.6 | 0.00 | 0.00 | 0.00 | 50 | 1015.6 |
| 20260906015111 | 24 | 334 | 0.0 | 1.6 | 0.00 | 0.00 | 0.00 | 50 | 1015.6 |
| 20260906014605 | 24 | 334 | 0.0 | 1.6 | 0.00 | 0.00 | 0.00 | 49 | 1015.7 |
| 20260906014059 | 24 | 334 | 0.0 | 1.6 | 0.00 | 0.00 | 0.00 | 49 | 1015.7 |
| 20260906013552 | 24 | 334 | 0.0 | 1.6 | 0.00 | 0.00 | 0.00 | 49 | 1015.8 |
| 20260906013309 | 24 | 334 | 0.0 | 1.6 | 0.00 | 0.00 | 0.00 | 48 | 1015.8 |
| 20260906012540 | 24 | 334 | 0.0 | 1.6 | 0.00 | 0.00 | 0.00 | 48 | 1015.7 |
| 20260906012035 | 24 | 334 | 0.0 | 1.6 | 0.00 | 0.00 | 0.00 | 48 | 1015.7 |
| 20260906011529 | 24 | 334 | 0.0 | 3.2 | 0.00 | 0.00 | 0.00 | 47 | 1015.7 |
| 20260906011023 | 24 | 334 | 1.6 | 3.2 | 0.00 | 0.00 | 0.00 | 47 | 1015.7 |
| 20260906010739 | 24 | 334 | 1.6 | 3.2 | 0.00 | 0.00 | 0.00 | 50 | 1015.7 |
| 20260906010011 | 24 | 85 | 0.0 | 1.6 | 0.00 | 0.00 | 0.00 | 50 | 1015.7 |
| 20260906005504 | 24 | 85 | 0.0 | 1.6 | 0.00 | 0.00 | 0.00 | 51 | 1015.7 |
| 20260906004958 | 24 | 85 | 0.0 | 1.6 | 0.00 | 0.00 | 0.00 | 51 | 1015.7 |
| 20260906004452 | 24 | 85 | 0.0 | 1.6 | 0.00 | 0.00 | 0.00 | 50 | 1015.7 |
| 20260906003947 | 24 | 85 | 0.0 | 1.6 | 0.00 | 0.00 | 0.00 | 50 | 1015.6 |
| 20260906003441 | 24 | 85 | 0.0 | 3.2 | 0.00 | 0.00 | 0.00 | 49 | 1015.7 |
| 20260906002934 | 24 | 85 | 0.0 | 3.2 | 0.00 | 0.00 | 0.00 | 49 | 1015.7 |
| 20260906002429 | 24 | 86 | 0.0 | 0.0 | 0.00 | 0.00 | 0.00 | 48 | 1015.6 |
| 20260906001923 | 24 | 85 | 0.0 | 3.2 | 0.00 | 0.00 | 0.00 | 48 | 1015.7 |
| 20260906001416 | 25 | 85 | 1.6 | 3.2 | 0.00 | 0.00 | 0.00 | 48 | 1015.7 |
| 20260906000910 | 25 | 86 | 1.6 | 4.8 | 0.00 | 0.00 | 0.00 | 47 | 1015.7 |
| 20260906000407 | 25 | 7 | 1.6 | 4.8 | 0.00 | 0.00 | 0.00 | 46 | 1015.7 |
| 20260905235859 | 25 | 352 | 0.0 | 1.6 | 0.00 | 0.00 | 0.00 | 46 | 1015.6 |
| 20260905235353 | 25 | 352 | 0.0 | 1.6 | 0.00 | 0.00 | 0.00 | 47 | 1015.6 |
| 20260905234847 | 25 | 352 | 0.0 | 1.6 | 0.00 | 0.00 | 0.00 | 47 | 1015.6 |
| 20260905234342 | 25 | 352 | 0.0 | 1.6 | 0.00 | 0.00 | 0.00 | 47 | 1015.6 |
| 20260905233834 | 25 | 352 | 0.0 | 1.6 | 0.00 | 0.00 | 0.00 | 47 | 1015.8 |
| 20260905233328 | 25 | 352 | 0.0 | 1.6 | 0.00 | 0.00 | 0.00 | 46 | 1015.9 |
| 20260905232829 | 25 | 350 | 1.6 | 4.8 | 0.00 | 0.00 | 0.00 | 47 | 1015.8 |
| 20260905232329 | 25 | 352 | 1.6 | 4.8 | 0.00 | 0.00 | 0.00 | 46 | 1015.9 |
| 20260905231829 | 26 | 302 | 1.6 | 4.8 | 0.00 | 0.00 | 0.00 | 45 | 1015.9 |
| 20260905231327 | 26 | 98 | 1.6 | 3.2 | 0.00 | 0.00 | 0.00 | 44 | 1015.8 |
| 20260905230825 | 26 | 98 | 3.2 | 4.8 | 0.00 | 0.00 | 0.00 | 43 | 1015.7 |
| 20260905230323 | 26 | 98 | 3.2 | 6.4 | 0.00 | 0.00 | 0.00 | 43 | 1015.8 |
| 20260905225821 | 26 | 92 | 3.2 | 6.4 | 0.00 | 0.00 | 0.00 | 43 | 1015.8 |
| 20260905225319 | 26 | 100 | 1.6 | 4.8 | 0.00 | 0.00 | 0.00 | 43 | 1015.9 |
| 20260905224817 | 26 | 101 | 3.2 | 4.8 | 0.00 | 0.00 | 0.00 | 43 | 1015.9 |
| 20260905224316 | 26 | 98 | 3.2 | 4.8 | 0.00 | 0.00 | 0.00 | 43 | 1015.9 |
| 20260905223813 | 26 | 101 | 1.6 | 3.2 | 0.00 | 0.00 | 0.00 | 44 | 1016.0 |
| 20260905223312 | 26 | 101 | 0.0 | 1.6 | 0.00 | 0.00 | 0.00 | 45 | 1016.0 |
| 20260905222813 | 26 | 101 | 0.0 | 1.6 | 0.00 | 0.00 | 0.00 | 45 | 1016.0 |
| 20260905222312 | 26 | 101 | 0.0 | 3.2 | 0.00 | 0.00 | 0.00 | 45 | 1016.0 |
| 20260905222126 | 26 | 101 | 0.0 | 3.2 | 0.00 | 0.00 | 0.00 | 45 | 1016.0 |
| 20260905222027 | 26 | 101 | 0.0 | 1.6 | 0.00 | 0.00 | 0.00 | 44 | 1015.9 |
| 20260905220813 | 26 | 101 | 0.0 | 4.8 | 0.00 | 0.00 | 0.00 | 43 | 1015.8 |
| 20260905220311 | 26 | 101 | 1.6 | 4.8 | 0.00 | 0.00 | 0.00 | 42 | 1015.8 |
| 20260905215809 | 26 | 123 | 1.6 | 4.8 | 0.00 | 0.00 | 0.00 | 43 | 1015.8 |
| 20260905215310 | 26 | 73 | 1.6 | 3.2 | 0.00 | 0.00 | 0.00 | 44 | 1015.8 |
| 20260905214804 | 26 | 74 | 1.6 | 3.2 | 0.00 | 0.00 | 0.00 | 44 | 1015.9 |
| 20260905214301 | 26 | 74 | 1.6 | 3.2 | 0.00 | 0.00 | 0.00 | 44 | 1016.0 |
| 20260905213801 | 26 | 73 | 1.6 | 4.8 | 0.00 | 0.00 | 0.00 | 44 | 1016.0 |
| 20260905213301 | 26 | 70 | 1.6 | 6.4 | 0.00 | 0.00 | 0.00 | 44 | 1016.1 |
| 20260905212758 | 27 | 101 | 1.6 | 6.4 | 0.00 | 0.00 | 0.00 | 42 | 1016.1 |
| 20260905212259 | 27 | 113 | 4.8 | 8.0 | 0.00 | 0.00 | 0.00 | 41 | 1016.2 |
| 20260905212235 | 27 | 101 | 6.4 | 8.0 | 0.00 | 0.00 | 0.00 | 40 | 1016.1 |
| 20260905211259 | 27 | 99 | 4.8 | 8.0 | 0.00 | 0.00 | 0.00 | 41 | 1016.1 |
| 20260905210759 | 27 | 103 | 3.2 | 6.4 | 0.00 | 0.00 | 0.00 | 42 | 1016.1 |
| 20260905210257 | 27 | 98 | 3.2 | 4.8 | 0.00 | 0.00 | 0.00 | 41 | 1016.2 |
| 20260905205756 | 27 | 113 | 1.6 | 3.2 | 0.00 | 0.00 | 0.00 | 43 | 1016.2 |
| 20260905205513 | 27 | 113 | 1.6 | 3.2 | 0.00 | 0.00 | 0.00 | 43 | 1016.3 |
| 20260905204755 | 27 | 113 | 1.6 | 1.6 | 0.00 | 0.00 | 0.00 | 44 | 1016.2 |
| 20260905204254 | 27 | 113 | 0.0 | 1.6 | 0.00 | 0.00 | 0.00 | 44 | 1016.3 |
| 20260905203755 | 27 | 113 | 0.0 | 3.2 | 0.00 | 0.00 | 0.00 | 43 | 1016.3 |
| 20260905203253 | 27 | 113 | 1.6 | 4.8 | 0.00 | 0.00 | 0.00 | 41 | 1016.3 |
| 20260905202753 | 27 | 113 | 3.2 | 8.0 | 0.00 | 0.00 | 0.00 | 41 | 1016.3 |
| 20260905202253 | 27 | 115 | 4.8 | 8.0 | 0.00 | 0.00 | 0.00 | 40 | 1016.2 |
| 20260905202018 | 27 | 96 | 4.8 | 8.0 | 0.00 | 0.00 | 0.00 | 40 | 1016.2 |
| 20260905201504 | 27 | 113 | 4.8 | 9.7 | 0.00 | 0.00 | 0.00 | 41 | 1016.2 |
| 20260905200740 | 27 | 111 | 6.4 | 9.7 | 0.00 | 0.00 | 0.00 | 42 | 1016.2 |
| 20260905200453 | 27 | 113 | 6.4 | 11.3 | 0.00 | 0.00 | 0.00 | 42 | 1016.2 |
| 20260905200211 | 27 | 115 | 8.0 | 12.9 | 0.00 | 0.00 | 0.00 | 42 | 1016.2 |
| 20260905195223 | 27 | 94 | 6.4 | 12.9 | 0.00 | 0.00 | 0.00 | 43 | 1016.2 |
| 20260905194717 | 27 | 114 | 4.8 | 12.9 | 0.00 | 0.00 | 0.00 | 43 | 1016.2 |
| 20260905194211 | 27 | 113 | 3.2 | 8.0 | 0.00 | 0.00 | 0.00 | 44 | 1016.2 |
| 20260905193704 | 27 | 109 | 4.8 | 9.7 | 0.00 | 0.00 | 0.00 | 44 | 1016.2 |
| 20260905193159 | 27 | 91 | 4.8 | 11.3 | 0.00 | 0.00 | 0.00 | 44 | 1016.2 |
| 20260905192659 | 27 | 107 | 6.4 | 11.3 | 0.00 | 0.00 | 0.00 | 44 | 1016.3 |
| 20260905192159 | 27 | 98 | 6.4 | 11.3 | 0.00 | 0.00 | 0.00 | 44 | 1016.3 |
| 20260905191658 | 27 | 117 | 6.4 | 9.7 | 0.00 | 0.00 | 0.00 | 44 | 1016.3 |
| 20260905191427 | 27 | 113 | 6.4 | 9.7 | 0.00 | 0.00 | 0.00 | 44 | 1016.3 |
| 20260905190659 | 27 | 95 | 4.8 | 8.0 | 0.00 | 0.00 | 0.00 | 44 | 1016.3 |
| 20260905190156 | 27 | 82 | 4.8 | 8.0 | 0.00 | 0.00 | 0.00 | 43 | 1016.3 |
| 20260905185657 | 27 | 91 | 3.2 | 8.0 | 0.00 | 0.00 | 0.00 | 42 | 1016.3 |
| 20260905185157 | 28 | 79 | 3.2 | 8.0 | 0.00 | 0.00 | 0.00 | 42 | 1016.3 |
| 20260905184657 | 28 | 108 | 4.8 | 8.0 | 0.00 | 0.00 | 0.00 | 42 | 1016.3 |
| 20260905184156 | 28 | 96 | 4.8 | 9.7 | 0.00 | 0.00 | 0.00 | 42 | 1016.3 |
| 20260905183657 | 28 | 107 | 4.8 | 9.7 | 0.00 | 0.00 | 0.00 | 42 | 1016.2 |
| 20260905183155 | 28 | 93 | 4.8 | 8.0 | 0.00 | 0.00 | 0.00 | 42 | 1016.1 |
| 20260905182655 | 28 | 103 | 4.8 | 8.0 | 0.00 | 0.00 | 0.00 | 42 | 1016.1 |
| 20260905182155 | 28 | 120 | 3.2 | 8.0 | 0.00 | 0.00 | 0.00 | 42 | 1016.0 |
| 20260905181628 | 28 | 104 | 3.2 | 9.7 | 0.00 | 0.00 | 0.00 | 42 | 1015.9 |
| 20260905181129 | 28 | 180 | 3.2 | 9.7 | 0.00 | 0.00 | 0.00 | 41 | 1015.9 |
| 20260905180628 | 28 | 124 | 3.2 | 9.7 | 0.00 | 0.00 | 0.00 | 40 | 1016.0 |
| 20260905180129 | 28 | 102 | 3.2 | 9.7 | 0.00 | 0.00 | 0.00 | 40 | 1015.9 |
| 20260905175847 | 28 | 59 | 3.2 | 8.0 | 0.00 | 0.00 | 0.00 | 40 | 1015.9 |
| 20260905175129 | 28 | 146 | 3.2 | 8.0 | 0.00 | 0.00 | 0.00 | 41 | 1015.8 |
| 20260905174628 | 28 | 119 | 3.2 | 8.0 | 0.00 | 0.00 | 0.00 | 41 | 1015.7 |
| 20260905174128 | 28 | 85 | 4.8 | 9.7 | 0.00 | 0.00 | 0.00 | 40 | 1015.7 |
| 20260905173628 | 28 | 237 | 4.8 | 9.7 | 0.00 | 0.00 | 0.00 | 40 | 1015.7 |
| 20260905173129 | 28 | 149 | 3.2 | 8.0 | 0.00 | 0.00 | 0.00 | 41 | 1015.6 |
| 20260905172628 | 29 | 150 | 3.2 | 8.0 | 0.00 | 0.00 | 0.00 | 42 | 1015.6 |
| 20260905172129 | 29 | 113 | 3.2 | 6.4 | 0.00 | 0.00 | 0.00 | 43 | 1015.6 |
| 20260905171850 | 29 | 120 | 3.2 | 9.7 | 0.00 | 0.00 | 0.00 | 42 | 1015.6 |
| 20260905171130 | 29 | 108 | 3.2 | 12.9 | 0.00 | 0.00 | 0.00 | 41 | 1015.6 |
| 20260905170629 | 29 | 235 | 4.8 | 12.9 | 0.00 | 0.00 | 0.00 | 40 | 1015.6 |
| 20260905170129 | 30 | 171 | 4.8 | 12.9 | 0.00 | 0.00 | 0.00 | 41 | 1015.5 |
| 20260905165629 | 30 | 154 | 3.2 | 9.7 | 0.00 | 0.00 | 0.00 | 41 | 1015.5 |
| 20260905165128 | 30 | 143 | 3.2 | 12.9 | 0.00 | 0.00 | 0.00 | 41 | 1015.5 |
| 20260905164629 | 30 | 132 | 4.8 | 12.9 | 0.00 | 0.00 | 0.00 | 40 | 1015.4 |
| 20260905164129 | 31 | 131 | 4.8 | 11.3 | 0.00 | 0.00 | 0.00 | 39 | 1015.3 |
| 20260905163625 | 31 | 199 | 3.2 | 11.3 | 0.00 | 0.00 | 0.00 | 40 | 1015.3 |
| 20260905163125 | 31 | 153 | 3.2 | 9.7 | 0.00 | 0.00 | 0.00 | 43 | 1015.4 |
| 20260905162622 | 31 | 143 | 3.2 | 9.7 | 0.00 | 0.00 | 0.00 | 40 | 1015.4 |
| 20260905162123 | 31 | 165 | 4.8 | 14.5 | 0.00 | 0.00 | 0.00 | 40 | 1015.2 |
| 20260905161623 | 31 | 229 | 4.8 | 14.5 | 0.00 | 0.00 | 0.00 | 38 | 1015.3 |
| 20260905161354 | 31 | 165 | 4.8 | 11.3 | 0.00 | 0.00 | 0.00 | 39 | 1015.4 |
| 20260905160621 | 32 | 181 | 3.2 | 11.3 | 0.00 | 0.00 | 0.00 | 38 | 1015.4 |
| 20260905160118 | 32 | 206 | 3.2 | 9.7 | 0.00 | 0.00 | 0.00 | 38 | 1015.3 |
| 20260905155618 | 32 | 237 | 3.2 | 9.7 | 0.00 | 0.00 | 0.00 | 38 | 1015.3 |
| 20260905155118 | 32 | 110 | 3.2 | 9.7 | 0.00 | 0.00 | 0.00 | 40 | 1015.3 |
| 20260905154620 | 31 | 228 | 4.8 | 14.5 | 0.00 | 0.00 | 0.00 | 41 | 1015.4 |
| 20260905154117 | 31 | 243 | 6.4 | 14.5 | 0.00 | 0.00 | 0.00 | 41 | 1015.3 |
| 20260905153616 | 31 | 232 | 6.4 | 12.9 | 0.00 | 0.00 | 0.00 | 42 | 1015.3 |
| 20260905153116 | 31 | 208 | 4.8 | 12.9 | 0.00 | 0.00 | 0.00 | 42 | 1015.3 |
| 20260905152616 | 31 | 243 | 4.8 | 12.9 | 0.00 | 0.00 | 0.00 | 44 | 1015.3 |
| 20260905152341 | 31 | 138 | 6.4 | 14.5 | 0.00 | 0.00 | 0.00 | 43 | 1015.3 |
| 20260905151615 | 31 | 208 | 8.0 | 14.5 | 0.00 | 0.00 | 0.00 | 43 | 1015.3 |
| 20260905151114 | 32 | 231 | 4.8 | 14.5 | 0.00 | 0.00 | 0.00 | 43 | 1015.2 |
| 20260905150607 | 32 | 262 | 4.8 | 14.5 | 0.00 | 0.00 | 0.00 | 44 | 1015.2 |
| 20260905145556 | 32 | 206 | 6.4 | 14.5 | 0.00 | 0.00 | 0.00 | 40 | 1015.2 |
| 20260905145049 | 32 | 223 | 4.8 | 12.9 | 0.00 | 0.00 | 0.00 | 40 | 1015.2 |
| 20260905144543 | 33 | 206 | 3.2 | 12.9 | 0.00 | 0.00 | 0.00 | 35 | 1015.3 |
| 20260905144306 | 33 | 262 | 1.6 | 6.4 | 0.00 | 0.00 | 0.00 | 39 | 1015.2 |
| 20260905143531 | 33 | 259 | 3.2 | 6.4 | 0.00 | 0.00 | 0.00 | 36 | 1015.3 |
| 20260905143027 | 32 | 248 | 3.2 | 9.7 | 0.00 | 0.00 | 0.00 | 34 | 1015.4 |
| 20260905142520 | 32 | 209 | 4.8 | 12.9 | 0.00 | 0.00 | 0.00 | 36 | 1015.4 |
| 20260905142014 | 32 | 237 | 4.8 | 12.9 | 0.00 | 0.00 | 0.00 | 37 | 1015.5 |
| 20260905141732 | 32 | 205 | 4.8 | 12.9 | 0.00 | 0.00 | 0.00 | 41 | 1015.5 |
| 20260905141002 | 31 | 231 | 6.4 | 12.9 | 0.00 | 0.00 | 0.00 | 40 | 1015.5 |
| 20260905140455 | 32 | 236 | 6.4 | 12.9 | 0.00 | 0.00 | 0.00 | 43 | 1015.5 |
| 20260905135950 | 32 | 232 | 6.4 | 12.9 | 0.00 | 0.00 | 0.00 | 36 | 1015.6 |
| 20260905135444 | 32 | 252 | 4.8 | 11.3 | 0.00 | 0.00 | 0.00 | 38 | 1015.6 |
| 20260905135207 | 32 | 209 | 6.4 | 14.5 | 0.00 | 0.00 | 0.00 | 36 | 1015.6 |
| 20260905134431 | 32 | 233 | 4.8 | 12.9 | 0.00 | 0.00 | 0.00 | 36 | 1015.7 |
| 20260905133926 | 32 | 220 | 4.8 | 11.3 | 0.00 | 0.00 | 0.00 | 34 | 1015.7 |
| 20260905133420 | 32 | 271 | 6.4 | 12.9 | 0.00 | 0.00 | 0.00 | 35 | 1015.8 |
| 20260905132914 | 31 | 258 | 8.0 | 12.9 | 0.00 | 0.00 | 0.00 | 36 | 1015.9 |
| 20260905132408 | 31 | 267 | 8.0 | 12.9 | 0.00 | 0.00 | 0.00 | 36 | 1015.9 |
| 20260905131901 | 32 | 292 | 6.4 | 14.5 | 0.00 | 0.00 | 0.00 | 33 | 1016.0 |
| 20260905131623 | 32 | 175 | 6.4 | 14.5 | 0.00 | 0.00 | 0.00 | 33 | 1016.0 |
| 20260905130850 | 32 | 224 | 4.8 | 11.3 | 0.00 | 0.00 | 0.00 | 31 | 1016.1 |
| 20260905130603 | 32 | 253 | 4.8 | 11.3 | 0.00 | 0.00 | 0.00 | 32 | 1016.1 |